Location: Schommer Observatory
(40.5200°N, 74.4500°W)
Time: 21:12:56
(UTC-04:00)

Tiangong 2 - Pass Details

Date: 14 October 2017
Orbit: 388 x 392 km, 42.8° (Epoch: 19 October)

Event Time Altitude Azimuth Distance (km) Brightness Sun altitude
Exits shadow 04:58:31 27° 66° (ENE) 798 3.3 -25.3°
Drops below altitude 10° 05:00:07 10° 73° (ENE) 1,422 5.0 -25.0°
Sets 05:02:13 0° 77° (ENE) 2,279 6.4 -24.6°
